CAPE
0 0 0 0 0 0 0 0 0 0 0 0 0 0 0 0 0 0 0 0 0 0 0 0 0 0 0 0 0 0 0 0 0 0 0 0 0 0 0 0 0 0 0 0
0 0 0 0 0 0 0 0 0 0 0 0 0 0 0 0 0 0 0 0 0 0 0 0 0 0 0 0 0 0 0 0 0 0 0 0 0 0 0 0 0 0 0 0
0 0 0 0 0 0 0 0 0 0 0 0 0 0 0 0 0 0 0 0 0 0 0 0 0 0 0 0 0 0 0 0 0 0 0 0 0 0 0 0 0 0 0 0
0 0 0 0 0 0 0 0 0 0 0 0 0 0 0 0 0 0 0 0 0 0 0 0 0 0 0 0 0 0 0 0 0 0 0 0 0 0 0 0 0 0 0 0
0 0 0 0 0 0 0 0 0 0 0 0 0 0 0 0 0 0 0 0 0 0 0 0 0 0 0 0 0 0 0 0 0 0 0 0 0 0 0 0 0 0 0 0
0 0 0 0 0 0 0 0 0 0 0 0 0 0 0 0 0 0 0 0 0 0 0 0 0 0 0 0 1 0 0 2 0 0 0 0 0 0 0 0 0 0 0 0
0 0 0 0 0 0 0 0 0 0 0 0 0 0 0 0 0 0 0 0 0 0 0 0 0 0 0 0 0 0 0 0 0 0 1 0 0 0 0 0 0 0 0 0
0 0 0 0 0 0 0 0 0 0 0 0 0 0 0 0 0 0 0 0 0 0 0 0 0 0 0 1 0 0 0 0 0 0 0 0 0 0 0 0 0 0 0 0
0 0 0 0 0 0 0 0 0 0 0 0 0 0 0 0 0 0 0 0 0 0 0 0 0 0 0 0 0 0 0 0 0 0 0 0 0 0 0 0 0 0 0 0
0 0 0 0 0 0 0 0 0 0 0 0 0 0 0 0 0 0 0 0 0 0 0 0 0 0 1 7 0 0 0 9 4 0 0 0 0 0 0 0 0 0 0 0
0 0 0 0 0 0 0 0 0 0 0 0 0 0 0 0 0 0 0 0 0 0 0 0 0 0 0 1 20 5 7 11 0 0 0 0 0 0 0 0 0 0 0 0
0 0 0 0 0 0 0 0 0 0 0 0 0 0 0 0 0 0 0 0 0 0 0 0 0 0 0 0 0 0 3 4 0 0 0 0 0 0 0 0 0 0 0 0
0 0 0 0 0 0 0 0 0 0 0 0 0 0 0 0 0 0 0 0 0 0 0 0 0 0 0 0 0 0 0 0 0 0 0 0 0 0 0 0 0 0 0 0
0 0 0 0 0 0 0 0 0 0 0 0 0 0 0 0 0 0 0 0 0 0 0 0 0 0 0 0 0 0 0 0 0 0 0 0 0 0 0 0 0 0 0 0
0 0 0 0 0 0 0 0 0 0 0 0 0 0 0 0 0 0 0 0 0 0 0 0 0 0 0 0 0 0 0 0 0 0 0 0 0 0 0 0 0 0 0 0
0 0 0 0 0 0 0 0 0 0 0 0 0 0 0 0 0 0 0 0 0 0 0 0 0 0 0 0 0 0 0 0 0 0 0 0 0 0 0 0 0 0 0 0
0 0 0 0 0 0 0 0 0 0 0 0 0 0 0 0 0 0 0 7 0 0 0 0 0 0 0 0 0 0 0 0 0 0 0 0 0 0 0 0 0 0 0 0
0 0 7 0 2 0 0 0 0 0 0 0 0 0 0 0 0 0 0 0 0 0 0 0 0 0 0 0 0 0 0 0 0 0 0 0 0 0 0 0 0 0 0 0
0 0 1 3 0 0 0 0 0 0 0 0 0 0 14 2 0 0 0 0 0 0 0 0 0 0 0 0 0 0 0 0 0 0 0 0 0 0 0 0 0 0 0 0
0 0 1 2 2 0 0 0 0 8 0 0 0 0 0 0 0 0 0 0 0 0 0 0 0 0 0 0 0 0 0 0 0 0 0 0 0 0 0 0 0 0 0 1
0 0 0 0 4 0 0 0 0 1 0 0 2 1 0 0 0 0 0 0 0 0 0 0 0 0 0 0 0 0 0 0 0 0 0 0 0 0 0 0 0 0 2 1
0 0 0 4 3 2 0 0 0 0 0 0 0 2 2 0 0 0 0 0 0 0 0 0 0 0 0 0 0 0 0 0 0 0 0 0 0 0 0 0 0 2 3 2
0 0 0 0 0 0 0 0 0 0 0 0 1 4 2 0 0 0 0 0 0 0 0 0 0 0 0 0 0 0 0 0 0 0 0 0 0 0 0 0 2 3 2 1
0 0 0 0 0 0 0 0 0 0 0 0 0 0 10 0 0 0 0 0 0 0 0 0 0 0 0 0 0 0 0 0 0 0 0 0 0 0 0 1 2 2 3 1
0 0 0 0 0 0 0 0 0 0 0 0 0 0 0 0 0 0 0 0 0 0 0 0 0 0 0 0 0 0 0 0 0 0 0 0 0 0 0 0 0 0 0 0
0 0 0 0 0 0 0 0 0 0 0 0 0 0 0 0 0 0 0 0 0 0 0 0 0 0 0 0 0 0 0 0 0 0 0 0 0 0 1 1 2 1 0 1
CIN
0 0 0 0 0 0 0 0 0 0 0 0 0 0 0 0 0 0 0 0 0 0 0 0 0 0 0 0 0 0 0 0 0 0 0 0 0 0 0 0 0 0 0 0
0 0 0 0 0 0 0 0 0 0 0 0 0 0 0 0 0 0 0 0 0 0 0 0 0 0 0 0 0 0 0 0 0 0 0 0 0 0 0 0 0 0 0 0
0 0 0 0 0 0 0 0 0 0 0 0 0 0 0 0 0 0 0 0 0 0 0 0 0 0 0 0 0 0 0 0 0 0 0 0 0 0 0 0 0 0 0 0
0 0 0 0 0 0 0 0 0 0 0 0 0 0 0 0 0 0 0 0 0 0 0 0 0 0 0 0 0 0 0 0 0 0 0 0 0 0 0 0 0 0 0 0
0 0 0 0 0 0 0 0 0 0 0 0 0 0 0 0 0 0 0 0 0 0 0 0 0 0 0 0 0 0 0 0 0 0 0 0 0 0 0 0 0 0 0 0
0 0 0 0 0 0 0 0 0 0 0 0 0 0 0 0 0 0 0 0 0 0 0 0 0 0 0 0 0 0 0 0 0 0 0 0 0 0 0 0 0 0 0 0
0 0 0 0 0 0 0 0 0 0 0 0 0 0 0 0 0 0 0 0 0 0 0 0 0 0 0 0 0 0 0 0 0 0 0 0 0 0 0 0 0 0 0 0
0 0 0 0 0 0 0 0 0 0 0 0 0 0 0 0 0 0 0 0 0 0 0 0 0 0 0 0 0 0 0 -2 -7 0 0 0 0 0 0 0 0 0 0 0
0 0 0 0 0 0 0 0 0 0 0 0 0 0 0 0 0 0 0 0 0 0 0 0 0 0 0 0 0 0 0 0 0 0 0 0 0 0 0 0 0 0 0 0
0 0 0 0 0 0 0 0 0 0 0 0 0 0 0 0 0 0 0 0 0 0 0 0 0 0 -113 -117 0 0 -24 -156 -106 -11 0 0 0 0 0 0 0 0 0 0
0 0 0 0 0 0 0 0 0 0 0 0 0 0 0 0 0 0 0 0 0 0 0 0 0 0 0 -29 -203 -222 -220 -206 -34 0 0 0 0 0 0 0 0 0 0 0
0 0 0 0 0 0 0 0 0 0 0 0 0 0 0 0 0 0 0 0 0 0 0 0 0 0 0 -82 -69 -14 -231 -268 -16 0 0 0 0 0 0 0 0 0 0 0
0 0 0 0 0 0 0 0 0 0 0 0 0 0 0 0 0 0 0 0 0 0 0 0 0 0 0 0 0 0 0 0 0 0 0 0 0 0 0 0 0 0 0 0
0 0 0 0 0 0 0 0 0 0 0 0 0 0 0 0 0 0 0 0 0 0 0 0 0 0 0 0 0 0 0 0 0 0 0 0 0 0 0 0 0 0 0 0
0 0 0 0 0 0 0 0 0 0 0 0 0 0 0 0 0 0 0 0 0 0 0 0 0 0 0 0 0 0 0 0 0 0 0 0 0 0 0 0 0 0 0 0
0 0 0 0 0 0 0 0 0 0 0 0 0 0 0 0 0 0 0 0 0 0 0 0 0 0 0 0 0 0 0 0 0 0 0 0 0 0 0 0 0 0 0 0
0 0 0 0 0 0 0 0 0 0 0 0 0 0 0 0 0 0 0 -97 0 0 0 0 0 0 0 0 0 0 0 0 0 0 0 0 0 0 0 0 0 0 0 0
0 0 0 0 -1 0 0 0 0 0 0 0 0 0 0 0 0 0 -3 0 0 0 0 0 0 0 0 0 0 0 0 0 0 0 0 0 0 0 0 0 0 0 0 0
0 0 0 0 -1 0 0 0 0 0 0 0 0 0 -71 -81 0 0 0 0 0 0 0 0 0 0 0 0 0 0 0 0 0 0 0 0 0 0 0 0 0 0 0 0
0 0 -1 -2 -3 0 0 0 0 -71 0 -11 0 0 0 0 0 0 0 0 0 0 0 0 0 0 0 0 0 0 0 0 0 0 0 0 0 0 0 0 0 0 0 0
0 0 0 -1 -1 -3 0 0 -14 -12 0 0 0 0 0 0 0 0 0 0 0 0 0 0 0 0 0 0 0 0 0 0 0 0 0 0 0 0 0 0 0 0 0 0
0 0 0 -3 -3 -3 0 0 0 0 0 0 0 0 0 0 0 0 0 0 0 0 0 0 0 0 0 0 0 0 0 0 0 0 0 0 0 0 0 0 0 0 0 0
0 0 -1 -22 0 0 0 0 0 0 0 0 0 0 0 0 0 0 0 0 0 0 0 0 0 0 0 0 0 0 0 0 0 0 0 0 0 0 0 0 0 0 0 0
0 0 0 0 0 0 0 0 0 0 0 0 0 0 -3 0 0 0 0 0 0 0 0 0 0 0 0 0 0 0 0 0 0 0 0 0 0 0 0 0 0 0 0 0
0 0 0 0 0 0 0 0 0 0 0 0 0 0 0 0 0 0 0 0 0 0 0 0 0 0 0 0 -1 0 0 0 0 0 0 0 0 0 0 0 0 0 0 0
0 0 0 0 0 0 0 0 0 0 0 0 0 0 0 0 0 0 0 0 0 0 0 0 0 0 0 0 0 0 0 0 0 0 0 0 0 0 0 0 0 0 0 0
Wind_Speed
23 25 22 22 18 22 26 26 27 28 33 29 27 25 27 36 39 40 37 35 33 34 31 22 18 18 18 16 14 13 13 13 12 11 10 11 11 11 12 12 12 10 8 7
22 26 25 21 21 22 24 27 28 29 25 24 29 29 29 34 35 37 37 39 39 38 36 30 23 20 20 20 17 16 15 15 16 13 13 15 13 14 13 13 11 11 10 7
21 21 25 25 25 25 26 27 30 30 29 29 34 34 29 29 28 33 34 34 35 38 41 36 27 22 21 19 18 17 16 16 15 16 14 14 15 15 16 15 15 13 12 9
22 22 24 28 27 23 29 24 25 30 31 34 28 42 31 32 31 32 34 32 35 38 37 35 28 23 19 17 16 16 16 16 16 16 19 17 18 18 18 16 17 13 12 12
23 25 27 28 27 25 29 26 29 29 31 33 31 38 35 31 40 32 33 36 37 36 34 32 28 24 21 19 17 14 14 15 15 17 18 18 19 19 17 15 16 15 11 11
23 24 25 25 25 25 27 30 29 30 31 40 34 33 44 33 29 29 33 36 37 36 34 29 25 22 21 19 18 15 14 16 16 16 14 19 15 14 16 19 16 16 9 8
28 29 29 25 28 25 24 27 37 38 36 40 30 32 31 29 29 31 34 34 34 33 32 29 26 24 22 20 16 13 14 14 14 17 23 16 12 9 6 6 4 2 5 7
36 40 26 22 23 26 25 24 30 39 38 41 31 36 33 27 29 29 29 29 30 32 31 28 26 22 21 18 11 7 9 17 21 17 17 13 11 4 3 4 5 6 6 7
35 33 26 25 23 22 24 27 22 31 33 39 35 34 30 28 29 28 29 29 33 34 31 27 25 21 18 12 6 11 17 18 23 18 9 5 4 4 6 6 3 5 4 6
27 40 30 29 25 24 24 22 31 29 40 45 40 43 38 28 30 30 31 34 36 36 35 31 28 24 18 14 11 14 18 20 22 13 10 9 9 6 5 5 6 6 4 5
28 30 34 31 29 31 31 30 27 31 32 42 47 43 27 29 31 30 32 37 40 41 39 38 32 30 30 29 25 23 21 21 19 15 11 11 10 6 5 5 6 6 6 7
28 33 42 39 30 29 29 32 30 37 42 37 39 46 30 31 34 38 39 40 40 39 37 35 31 32 29 25 24 24 21 16 12 11 11 9 9 7 6 6 6 6 8 7
28 32 43 42 28 24 26 26 28 32 35 42 44 46 38 45 49 52 51 48 38 34 31 31 33 30 27 26 26 28 23 20 18 15 13 9 8 8 9 9 6 6 9 9
22 27 33 43 38 40 44 41 40 42 46 49 51 55 51 48 46 44 44 41 37 32 27 29 29 31 32 32 33 29 24 25 21 16 17 15 11 10 9 6 7 8 10 12
24 35 35 37 38 38 43 41 42 43 45 47 52 50 45 42 41 41 41 35 31 27 24 22 25 27 29 30 29 29 29 21 18 19 19 19 17 14 12 9 9 8 10 12
24 33 32 40 36 38 45 45 43 42 42 43 43 46 38 39 38 36 32 28 24 20 21 23 28 29 32 36 37 35 30 24 18 18 20 18 18 15 11 11 9 8 8 9
26 29 33 44 35 41 48 43 40 38 35 37 43 43 39 37 33 31 25 18 17 21 25 28 26 25 31 37 32 33 28 24 20 18 16 15 14 14 13 10 9 8 7 8
27 27 29 43 39 50 40 36 35 34 35 36 36 37 36 31 26 24 16 13 16 19 21 25 27 29 23 24 27 27 26 21 15 14 9 9 11 12 11 12 11 11 9 6
24 27 34 40 43 45 48 39 33 34 39 34 37 36 30 27 21 22 16 13 12 12 16 26 29 30 27 17 18 20 21 18 16 12 8 6 5 7 8 9 9 11 11 10
22 25 32 36 45 52 39 28 29 27 45 34 31 30 27 26 25 23 21 20 13 14 19 25 32 34 28 24 17 20 22 13 9 7 5 3 4 5 5 5 5 7 11 8
33 34 38 42 45 42 32 31 26 38 36 37 35 36 33 31 26 24 26 26 15 16 25 30 32 32 31 21 15 19 21 17 12 10 6 4 2 1 1 2 3 4 4 7
38 39 41 40 42 46 24 24 30 26 32 35 39 36 36 33 32 32 31 15 18 22 26 28 28 31 31 23 18 21 22 20 12 8 6 4 3 2 2 1 2 3 3 4
39 33 36 31 32 24 23 21 29 30 36 35 34 34 33 33 32 31 28 22 14 21 21 25 27 30 31 23 19 22 21 17 10 6 5 5 4 3 2 1 1 2 2 4
31 27 33 32 24 22 30 35 41 37 39 36 28 33 32 33 35 35 35 33 25 24 24 24 24 27 30 25 20 20 20 16 11 5 5 5 4 4 3 4 2 1 2 1
31 30 31 36 34 38 37 40 35 43 43 42 39 36 38 37 40 38 34 30 16 19 24 21 22 19 20 24 19 19 18 17 13 9 8 7 6 4 3 3 1 1 1 2
25 30 35 37 31 32 36 42 41 43 45 43 44 45 43 37 36 32 21 22 18 18 21 22 24 23 16 14 18 17 17 17 14 10 8 6 6 5 5 4 5 6 4 2
Wind_Direction
319 311 311 315 316 317 317 317 316 318 312 317 315 315 317 313 308 306 308 309 311 311 311 306 289 276 278 272 258 247 250 255 253 256 263 280 285 290 289 292 294 298 303 307
319 310 316 322 318 314 315 315 315 321 323 318 316 312 314 313 311 307 306 306 311 311 313 311 299 285 274 266 259 253 252 254 258 253 266 281 284 291 290 292 295 296 301 308
319 323 324 321 318 314 313 313 316 317 321 318 316 311 316 319 318 314 312 313 313 314 314 317 313 301 293 278 266 259 254 248 250 261 267 278 287 290 287 286 288 292 299 307
322 325 319 317 317 319 313 319 318 317 318 315 323 312 316 317 317 318 317 318 320 319 321 323 322 316 306 299 286 271 261 255 260 264 271 268 275 276 283 283 285 293 298 301
322 320 317 313 315 319 314 320 319 316 313 314 312 313 317 320 316 318 317 319 323 328 329 329 328 326 325 317 309 296 280 271 265 268 267 268 277 282 282 280 278 284 297 300
314 319 316 314 316 314 316 314 315 314 311 304 309 306 310 321 324 325 320 321 324 325 329 335 337 337 332 325 316 308 294 284 288 291 283 282 264 276 275 273 273 285 311 309
318 313 312 312 312 316 315 314 310 308 305 303 317 310 304 318 322 322 321 323 326 328 330 334 336 335 332 323 317 312 313 303 295 293 288 281 286 285 270 269 280 271 292 299
311 311 315 323 319 317 316 313 306 306 307 308 314 307 313 321 323 325 326 329 331 332 333 335 336 338 335 333 333 334 325 320 306 295 295 296 292 282 242 222 286 278 277 292
310 310 319 324 324 324 320 313 318 308 309 307 309 310 316 319 321 324 326 329 330 331 331 330 331 333 331 338 323 305 304 302 292 295 301 271 196 234 261 257 250 194 254 278
313 305 313 317 319 319 313 317 309 309 305 303 305 307 308 315 317 319 320 322 326 327 326 320 319 318 319 316 299 297 302 291 289 295 295 288 290 282 251 219 206 191 235 264
317 309 308 314 313 311 311 307 307 307 303 302 303 305 322 319 320 319 318 320 320 319 316 316 307 308 304 300 296 297 300 295 298 294 287 296 294 292 276 224 210 207 221 253
314 307 302 304 310 311 309 306 306 302 303 302 302 296 318 322 320 317 314 314 313 312 312 312 315 306 305 297 295 297 297 294 286 295 302 288 278 259 262 250 252 223 223 258
314 305 302 305 315 319 314 315 318 314 310 305 303 302 313 313 311 310 309 309 309 306 307 310 309 307 307 306 300 297 298 294 297 295 289 278 267 265 274 271 249 255 270 270
311 301 299 297 300 304 301 301 302 301 299 301 295 302 306 309 308 309 312 311 311 314 313 315 313 311 307 306 299 301 297 295 294 288 283 277 269 266 266 255 242 262 270 273
303 297 299 298 301 302 300 302 304 300 300 297 303 303 308 309 309 309 310 311 315 318 318 319 321 320 317 315 315 311 304 301 287 282 281 280 280 277 275 270 270 271 270 266
303 301 303 299 304 303 301 304 305 303 302 301 305 305 309 311 312 311 310 313 314 319 324 326 320 319 316 309 304 307 310 309 295 281 276 276 276 268 266 265 266 271 269 271
300 303 305 300 309 308 302 307 307 306 305 307 307 312 316 313 313 315 315 313 318 321 322 321 327 326 320 309 315 314 322 319 299 287 273 269 265 256 262 257 256 253 244 264
299 300 301 302 308 300 310 316 313 310 309 309 311 314 315 315 316 324 326 324 324 327 331 329 328 325 325 334 326 323 328 329 325 298 271 264 259 255 253 255 264 270 257 248
290 298 303 301 300 304 307 313 316 314 312 318 316 317 321 323 323 322 325 326 330 340 339 326 325 324 328 335 337 333 330 337 329 317 308 284 248 255 250 256 258 263 270 273
306 300 300 305 304 304 314 322 326 324 310 328 325 322 320 318 311 321 331 326 346 344 339 336 323 322 326 329 337 330 319 347 358 0 339 335 284 271 251 234 223 249 265 272
307 306 298 299 300 305 314 318 325 309 313 318 319 305 302 303 309 313 318 316 341 343 334 332 329 328 329 334 336 327 314 323 342 346 9 32 43 359 272 255 260 240 257 274
306 305 303 304 302 304 327 326 320 322 316 319 297 292 288 294 291 298 260 325 332 330 336 338 337 334 333 331 326 310 305 309 332 353 7 5 20 358 344 313 292 255 265 265
307 307 307 307 309 320 329 323 323 317 305 294 309 299 296 286 285 302 310 324 338 337 343 342 339 340 342 334 322 299 300 317 337 358 7 354 358 360 357 358 331 298 277 288
311 313 308 310 311 315 311 304 302 302 284 273 310 297 285 280 275 278 296 302 316 328 335 338 338 343 345 339 314 300 302 317 328 1 354 354 357 353 355 347 347 73 141 287
310 315 310 303 301 303 300 294 298 293 284 284 286 291 296 293 282 288 302 312 327 331 331 340 338 344 356 1 327 304 310 317 327 327 329 328 326 340 343 337 343 332 201 164
306 302 303 300 306 304 301 296 296 286 282 282 284 281 283 297 296 303 316 321 327 335 336 334 331 333 347 357 343 325 316 322 324 324 319 322 319 320 321 322 325 320 318 296